Weather History for KCVG - November, 2011

Change the Weather History Date:

Thursday, November 3, 2011

  Actual Average Record
Temperature  
Mean Temperature 49 °F 50 °F  
Max Temperature 55 °F 60 °F 81 °F (1946)
Min Temperature 43 °F 40 °F 12 °F (1951)
Degree Days  
Heating Degree Days 16 15  
Month to date heating degree days 45 44  
Since 1 July heating degree days 440 406  
Cooling Degree Days 0 0  
Month to date cooling degree days 0 0  
Year to date cooling degree days 1348 1121  
Moisture  
Dew Point 45 °F    
Average Humidity 75    
Maximum Humidity 96    
Minimum Humidity 54    
Precipitation  
Precipitation 2.26 in 0.11 in 2.26 in (2011)
Month to date precipitation 2.26 0.35  
Year to date precipitation 60.69 36.07  
Snow  
Snow 0.00 in 0.00 in 0.50 in (1966)
Month to date snowfall 0.0 0.0  
Since 1 July snowfall 0.0 0.4  
Since 1 September snowfall 0.0 0.4  
Snow Depth 0.00 in    
Sea Level Pressure  
Sea Level Pressure 29.92 in    
Wind  
Wind Speed 9 mph (ESE)    
Max Wind Speed 21 mph    
Max Gust Speed 25 mph    
Visibility 6 miles    
Events Rain    
T = Trace of Precipitation, MM = Missing Value Source: NWS Daily Summary

Daily Weather History Graph

Daily Weather History Graph

Search for Another Location

Airport or City:

Trip Planner

Search our weather history database for the weather conditions in past years. The results will help you decide how hot, cold, wet, or windy it might be!

Date:

Astronomy

Nov. 03, 2011 Rise Set
Actual Time 8:08 AM EDT 6:35 PM EDT
Civil Twilight 7:40 AM EDT 7:03 PM EDT
Nautical Twilight 7:08 AM EDT 7:35 PM EDT
Astronomical Twilight 6:37 AM EDT 8:06 PM EDT
Moon 2:56 PM EDT (11/3) 1:22 AM EDT (11/3)
Length of Visible Light 11h 23m
Length of Day
10h 27m
First Quarter, 60% of the Moon is Illuminated
Nov 3
First Quarter
Nov 10
Full
Nov 18
Last Quarter
Nov 25
New
Dec 2
First Quarter

Hourly Weather History & Observations

Time (EDT) Temp. Windchill Dew Point Humidity Pressure Visibility Wind Dir Wind Speed Gust Speed Precip Events Conditions
12:52 AM 50.0 °F - 36.0 °F 59% 30.07 in 10.0 mi South 6.9 mph - N/A   Overcast
1:52 AM 51.1 °F - 36.0 °F 56% 30.06 in 10.0 mi South 8.1 mph - N/A   Overcast
2:52 AM 52.0 °F - 35.1 °F 53% 30.05 in 10.0 mi SSW 6.9 mph - N/A   Overcast
3:52 AM 48.9 °F - 35.1 °F 59% 30.03 in 10.0 mi South 4.6 mph - N/A   Overcast
4:52 AM 46.9 °F - 35.1 °F 63% 30.01 in 10.0 mi South 5.8 mph - N/A   Overcast
6:52 AM 44.1 °F 41.5 °F 35.1 °F 71% 29.99 in 10.0 mi SE 4.6 mph - N/A   Overcast
7:52 AM 43.0 °F 39.5 °F 35.1 °F 74% 30.00 in 10.0 mi ESE 5.8 mph - N/A   Mostly Cloudy
8:52 AM 45.0 °F 41.8 °F 37.0 °F 74% 29.99 in 10.0 mi SE 5.8 mph - N/A   Mostly Cloudy
9:52 AM 51.1 °F - 37.9 °F 61% 29.99 in 10.0 mi SSE 8.1 mph - N/A   Mostly Cloudy
10:52 AM 52.0 °F - 39.0 °F 61% 29.97 in 10.0 mi SE 9.2 mph - N/A   Overcast
11:52 AM 54.0 °F - 39.9 °F 59% 29.95 in 9.0 mi SSE 10.4 mph - N/A   Overcast
12:26 PM 53.6 °F - 42.8 °F 67% 29.91 in 5.0 mi SE 12.7 mph - 0.01 in Rain Light Rain
12:41 PM 51.8 °F - 44.6 °F 76% 29.93 in 2.5 mi South 8.1 mph - 0.06 in Rain Heavy Rain
12:52 PM 50.0 °F - 46.0 °F 86% 29.92 in 2.5 mi SSE 11.5 mph - 0.11 in Rain Rain
1:09 PM 50.0 °F - 46.4 °F 87% 29.92 in 5.0 mi SSE 8.1 mph - 0.03 in Rain Light Rain
1:52 PM 50.0 °F - 46.9 °F 89% 29.86 in 6.0 mi SE 11.5 mph - 0.09 in Rain Light Rain
2:52 PM 51.8 °F - 48.2 °F 88% 29.86 in 9.0 mi SSE 3.5 mph - N/A Rain Light Rain
3:33 PM 51.8 °F - 48.2 °F 88% 29.86 in 8.0 mi ESE 8.1 mph - 0.02 in   Overcast
3:52 PM 51.1 °F - 48.9 °F 92% 29.84 in 4.0 mi ESE 5.8 mph - 0.03 in Rain Light Rain
4:10 PM 51.8 °F - 48.2 °F 88% 29.86 in 3.0 mi ESE 6.9 mph - 0.04 in Rain Rain
4:52 PM 51.1 °F - 48.9 °F 92% 29.85 in 4.0 mi ESE 8.1 mph - 0.15 in Rain Light Rain
5:41 PM 51.8 °F - 50.0 °F 94% 29.85 in 2.5 mi ESE 9.2 mph - N/A Rain Rain
5:52 PM 51.1 °F - 50.0 °F 96% 29.86 in 2.0 mi ESE 9.2 mph - 0.13 in Rain Heavy Rain
6:04 PM 51.8 °F - 50.0 °F 94% 29.86 in 2.0 mi ESE 9.2 mph - 0.06 in Rain Heavy Rain
6:16 PM 51.8 °F - 50.0 °F 94% 29.86 in 1.8 mi ESE 10.4 mph - 0.13 in Rain Heavy Rain
7:16 PM 51.8 °F - 50.0 °F 94% 29.87 in 3.0 mi East 11.5 mph - 0.14 in Rain Rain
7:52 PM 51.1 °F - 50.0 °F 96% 29.88 in 3.0 mi ENE 8.1 mph - 0.40 in Rain Heavy Rain
8:11 PM 51.8 °F - 50.0 °F 94% 29.88 in 3.0 mi ENE 10.4 mph - 0.09 in Rain Rain
8:24 PM 51.8 °F - 50.0 °F 94% 29.88 in 2.5 mi East 9.2 mph - 0.15 in Rain Heavy Rain
8:52 PM 51.1 °F - 50.0 °F 96% 29.88 in 3.0 mi NE 10.4 mph - 0.28 in Rain Rain
9:05 PM 51.8 °F - 50.0 °F 94% 29.89 in 2.0 mi ENE 9.2 mph - 0.03 in Rain Light Rain
9:52 PM 51.1 °F - 50.0 °F 96% 29.90 in 3.0 mi NE 13.8 mph - 0.18 in Rain Light Rain
10:36 PM 51.8 °F - 50.0 °F 94% 29.91 in 3.0 mi NE 15.0 mph - 0.12 in Rain Rain
10:52 PM 51.8 °F - 50.0 °F 94% 29.92 in 3.0 mi NE 12.7 mph - N/A Rain Rain
11:52 PM 50.0 °F - 48.9 °F 96% 29.92 in 3.0 mi NE 17.3 mph - 0.22 in Rain Rain